Location: Orange Harbor Mobile Home Park
(26.6923°N, 81.7937°W)
Time: 07:31:28
(UTC+00:00)

MOS 1 Rocket - Pass Details

Date: 19 September 2020
Orbit: 614 x 831 km, 97.4° (Epoch: 29 October)

Event Time Altitude Azimuth Distance (km) Brightness Sun altitude
Rises 00:01:22 0° 20° (NNE) 2,939 6.4 -8.4°
Reaches altitude 10° 00:03:43 10° 28° (NNE) 2,007 5.5 -8.9°
Maximum altitude 00:07:47 40° 98° (E) 911 3.4 -9.8°
Drops below altitude 10° 00:11:47 10° 169° (S) 1,963 5.5 -10.7°
Sets 00:14:03 0° 176° (S) 2,866 6.4 -11.2°
